Year,Month,Day,Hour,Minute,Value (Times are PST for insolation in W/m^2)
2022,05,29,00,00,0.00
2022,05,29,00,01,0.00
2022,05,29,00,02,0.00
2022,05,29,00,03,0.00
2022,05,29,00,04,0.00
2022,05,29,00,05,0.00
2022,05,29,00,06,0.00
2022,05,29,00,07,0.00
2022,05,29,00,08,0.00
2022,05,29,00,09,0.00
2022,05,29,00,10,0.00
2022,05,29,00,11,0.00
2022,05,29,00,12,0.00
2022,05,29,00,13,0.00
2022,05,29,00,14,0.00
2022,05,29,00,15,0.00
2022,05,29,00,16,0.00
2022,05,29,00,17,0.00
2022,05,29,00,18,0.00
2022,05,29,00,19,0.00
2022,05,29,00,20,0.00
2022,05,29,00,21,0.00
2022,05,29,00,22,0.00
2022,05,29,00,23,0.00
2022,05,29,00,24,0.00
2022,05,29,00,25,0.00
2022,05,29,00,26,0.00
2022,05,29,00,27,0.00
2022,05,29,00,28,0.00
2022,05,29,00,29,0.00
2022,05,29,00,30,0.00
2022,05,29,00,31,0.00
2022,05,29,00,32,0.00
2022,05,29,00,33,0.00
2022,05,29,00,34,0.00
2022,05,29,00,35,0.00
2022,05,29,00,36,0.00
2022,05,29,00,37,0.00
2022,05,29,00,38,0.00
2022,05,29,00,39,0.00
2022,05,29,00,40,0.00
2022,05,29,00,41,0.00
2022,05,29,00,42,0.00
2022,05,29,00,43,0.00
2022,05,29,00,44,0.00
2022,05,29,00,45,0.00
2022,05,29,00,46,0.00
2022,05,29,00,47,0.00
2022,05,29,00,48,0.00
2022,05,29,00,49,0.00
2022,05,29,00,50,0.00
2022,05,29,00,51,0.00
2022,05,29,00,52,0.00
2022,05,29,00,53,0.00
2022,05,29,00,54,0.00
2022,05,29,00,55,0.00
2022,05,29,00,56,0.00
2022,05,29,00,57,0.00
2022,05,29,00,58,0.00
2022,05,29,00,59,0.00
2022,05,29,01,00,0.00
2022,05,29,01,01,0.00
2022,05,29,01,02,0.00
2022,05,29,01,03,0.00
2022,05,29,01,04,0.00
2022,05,29,01,05,0.00
2022,05,29,01,06,0.00
2022,05,29,01,07,0.00
2022,05,29,01,08,0.00
2022,05,29,01,09,0.00
2022,05,29,01,10,0.00
2022,05,29,01,11,0.00
2022,05,29,01,12,0.00
2022,05,29,01,13,0.00
2022,05,29,01,14,0.00
2022,05,29,01,15,0.00
2022,05,29,01,16,0.00
2022,05,29,01,17,0.00
2022,05,29,01,18,0.00
2022,05,29,01,19,0.00
2022,05,29,01,20,0.00
2022,05,29,01,21,0.00
2022,05,29,01,22,0.00
2022,05,29,01,23,0.00
2022,05,29,01,24,0.00
2022,05,29,01,25,0.00
2022,05,29,01,26,0.00
2022,05,29,01,27,0.00
2022,05,29,01,28,0.00
2022,05,29,01,29,0.00
2022,05,29,01,30,0.00
2022,05,29,01,31,0.00
2022,05,29,01,32,0.00
2022,05,29,01,33,0.00
2022,05,29,01,34,0.00
2022,05,29,01,35,0.00
2022,05,29,01,36,0.00
2022,05,29,01,37,0.00
2022,05,29,01,38,0.00
2022,05,29,01,39,0.00
2022,05,29,01,40,0.00
2022,05,29,01,41,0.00
2022,05,29,01,42,0.00
2022,05,29,01,43,0.00
2022,05,29,01,44,0.00
2022,05,29,01,45,0.00
2022,05,29,01,46,0.00
2022,05,29,01,47,0.00
2022,05,29,01,48,0.00
2022,05,29,01,49,0.00
2022,05,29,01,50,0.00
2022,05,29,01,51,0.00
2022,05,29,01,52,0.00
2022,05,29,01,53,0.00
2022,05,29,01,54,0.00
2022,05,29,01,55,0.00
2022,05,29,01,56,0.00
2022,05,29,01,57,0.00
2022,05,29,01,58,0.00
2022,05,29,01,59,0.00
2022,05,29,02,00,0.00
2022,05,29,02,01,0.00
2022,05,29,02,02,0.00
2022,05,29,02,03,0.00
2022,05,29,02,04,0.00
2022,05,29,02,05,0.00
2022,05,29,02,06,0.00
2022,05,29,02,07,0.00
2022,05,29,02,08,0.00
2022,05,29,02,09,0.00
2022,05,29,02,10,0.00
2022,05,29,02,11,0.00
2022,05,29,02,12,0.00
2022,05,29,02,13,0.00
2022,05,29,02,14,0.00
2022,05,29,02,15,0.00
2022,05,29,02,16,0.00
2022,05,29,02,17,0.00
2022,05,29,02,18,0.00
2022,05,29,02,19,0.00
2022,05,29,02,20,0.00
2022,05,29,02,21,0.00
2022,05,29,02,22,0.00
2022,05,29,02,23,0.00
2022,05,29,02,24,0.00
2022,05,29,02,25,0.00
2022,05,29,02,26,0.00
2022,05,29,02,27,0.00
2022,05,29,02,28,0.00
2022,05,29,02,29,0.00
2022,05,29,02,30,0.00
2022,05,29,02,31,0.00
2022,05,29,02,32,0.00
2022,05,29,02,33,0.00
2022,05,29,02,34,0.00
2022,05,29,02,35,0.00
2022,05,29,02,36,0.00
2022,05,29,02,37,0.00
2022,05,29,02,38,0.00
2022,05,29,02,39,0.00
2022,05,29,02,40,0.00
2022,05,29,02,41,0.00
2022,05,29,02,42,0.00
2022,05,29,02,43,0.00
2022,05,29,02,44,0.00
2022,05,29,02,45,0.00
2022,05,29,02,46,0.00
2022,05,29,02,47,0.00
2022,05,29,02,48,0.00
2022,05,29,02,49,0.00
2022,05,29,02,50,0.00
2022,05,29,02,51,0.00
2022,05,29,02,52,0.00
2022,05,29,02,53,0.00
2022,05,29,02,54,0.00
2022,05,29,02,55,0.00
2022,05,29,02,56,0.00
2022,05,29,02,57,0.00
2022,05,29,02,58,0.00
2022,05,29,02,59,0.00
2022,05,29,03,00,0.00
2022,05,29,03,01,0.00
2022,05,29,03,02,0.00
2022,05,29,03,03,0.00
2022,05,29,03,04,0.00
2022,05,29,03,05,0.00
2022,05,29,03,06,0.00
2022,05,29,03,07,0.00
2022,05,29,03,08,0.00
2022,05,29,03,09,0.00
2022,05,29,03,10,0.00
2022,05,29,03,11,0.00
2022,05,29,03,12,0.00
2022,05,29,03,13,0.00
2022,05,29,03,14,0.00
2022,05,29,03,15,0.00
2022,05,29,03,16,0.00
2022,05,29,03,17,0.00
2022,05,29,03,18,0.00
2022,05,29,03,19,0.00
2022,05,29,03,20,0.00
2022,05,29,03,21,0.00
2022,05,29,03,22,0.00
2022,05,29,03,23,0.00
2022,05,29,03,24,0.00
2022,05,29,03,25,0.00
2022,05,29,03,26,0.00
2022,05,29,03,27,0.00
2022,05,29,03,28,0.00
2022,05,29,03,29,0.00
2022,05,29,03,30,0.00
2022,05,29,03,31,0.00
2022,05,29,03,32,0.00
2022,05,29,03,33,0.00
2022,05,29,03,34,0.00
2022,05,29,03,35,0.00
2022,05,29,03,36,0.00
2022,05,29,03,37,0.00
2022,05,29,03,38,0.00
2022,05,29,03,39,0.00
2022,05,29,03,40,0.00
2022,05,29,03,41,0.00
2022,05,29,03,42,0.00
2022,05,29,03,43,0.00
2022,05,29,03,44,0.00
2022,05,29,03,45,0.00
2022,05,29,03,46,0.00
2022,05,29,03,47,0.00
2022,05,29,03,48,0.00
2022,05,29,03,49,0.00
2022,05,29,03,50,0.00
2022,05,29,03,51,0.00
2022,05,29,03,52,0.00
2022,05,29,03,53,0.00
2022,05,29,03,54,0.00
2022,05,29,03,55,0.00
2022,05,29,03,56,0.00
2022,05,29,03,57,0.00
2022,05,29,03,58,0.00
2022,05,29,03,59,0.00
2022,05,29,04,00,0.00
2022,05,29,04,01,0.00
2022,05,29,04,02,0.00
2022,05,29,04,03,0.00
2022,05,29,04,04,0.00
2022,05,29,04,05,0.00
2022,05,29,04,06,0.00
2022,05,29,04,07,0.00
2022,05,29,04,08,0.00
2022,05,29,04,09,0.00
2022,05,29,04,10,0.00
2022,05,29,04,11,0.00
2022,05,29,04,12,0.00
2022,05,29,04,13,0.00
2022,05,29,04,14,0.00
2022,05,29,04,15,0.00
2022,05,29,04,16,0.00
2022,05,29,04,17,0.00
2022,05,29,04,18,0.00
2022,05,29,04,19,0.00
2022,05,29,04,20,0.00
2022,05,29,04,21,0.00
2022,05,29,04,22,0.00
2022,05,29,04,23,0.00
2022,05,29,04,24,0.00
2022,05,29,04,25,0.00
2022,05,29,04,26,0.00
2022,05,29,04,27,0.00
2022,05,29,04,28,0.00
2022,05,29,04,29,0.00
2022,05,29,04,30,0.00
2022,05,29,04,31,0.00
2022,05,29,04,32,0.00
2022,05,29,04,33,0.00
2022,05,29,04,34,0.00
2022,05,29,04,35,0.00
2022,05,29,04,36,0.00
2022,05,29,04,37,0.00
2022,05,29,04,38,0.00
2022,05,29,04,39,0.00
2022,05,29,04,40,0.00
2022,05,29,04,41,0.00
2022,05,29,04,42,0.00
2022,05,29,04,43,0.00
2022,05,29,04,44,0.00
2022,05,29,04,45,0.00
2022,05,29,04,46,0.00
2022,05,29,04,47,0.00
2022,05,29,04,48,0.00
2022,05,29,04,49,0.00
2022,05,29,04,50,0.00
2022,05,29,04,51,0.00
2022,05,29,04,52,0.00
2022,05,29,04,53,0.00
2022,05,29,04,54,0.00
2022,05,29,04,55,0.00
2022,05,29,04,56,0.00
2022,05,29,04,57,0.00
2022,05,29,04,58,0.00
2022,05,29,04,59,0.00
2022,05,29,05,00,0.00
2022,05,29,05,01,0.00
2022,05,29,05,02,0.00
2022,05,29,05,03,0.00
2022,05,29,05,04,0.00
2022,05,29,05,05,0.00
2022,05,29,05,06,0.00
2022,05,29,05,07,0.00
2022,05,29,05,08,0.00
2022,05,29,05,09,0.00
2022,05,29,05,10,0.00
2022,05,29,05,11,0.00
2022,05,29,05,12,0.00
2022,05,29,05,13,0.00
2022,05,29,05,14,0.00
2022,05,29,05,15,0.00
2022,05,29,05,16,0.00
2022,05,29,05,17,0.00
2022,05,29,05,18,0.00
2022,05,29,05,19,0.00
2022,05,29,05,20,0.00
2022,05,29,05,21,3.10
2022,05,29,05,22,5.00
2022,05,29,05,23,5.00
2022,05,29,05,24,5.30
2022,05,29,05,25,7.00
2022,05,29,05,26,7.80
2022,05,29,05,27,9.00
2022,05,29,05,28,9.00
2022,05,29,05,29,10.60
2022,05,29,05,30,11.00
2022,05,29,05,31,11.10
2022,05,29,05,32,12.00
2022,05,29,05,33,12.00
2022,05,29,05,34,13.00
2022,05,29,05,35,14.00
2022,05,29,05,36,15.50
2022,05,29,05,37,16.00
2022,05,29,05,38,16.30
2022,05,29,05,39,18.00
2022,05,29,05,40,18.40
2022,05,29,05,41,19.00
2022,05,29,05,42,19.00
2022,05,29,05,43,20.50
2022,05,29,05,44,22.80
2022,05,29,05,45,23.00
2022,05,29,05,46,23.50
2022,05,29,05,47,25.40
2022,05,29,05,48,26.00
2022,05,29,05,49,27.30
2022,05,29,05,50,28.00
2022,05,29,05,51,29.80
2022,05,29,05,52,32.00
2022,05,29,05,53,32.30
2022,05,29,05,54,33.70
2022,05,29,05,55,35.00
2022,05,29,05,56,36.30
2022,05,29,05,57,38.50
2022,05,29,05,58,39.00
2022,05,29,05,59,40.00
2022,05,29,06,00,40.60
2022,05,29,06,01,42.00
2022,05,29,06,02,43.00
2022,05,29,06,03,44.00
2022,05,29,06,04,45.60
2022,05,29,06,05,46.00
2022,05,29,06,06,47.00
2022,05,29,06,07,47.60
2022,05,29,06,08,49.00
2022,05,29,06,09,50.00
2022,05,29,06,10,51.00
2022,05,29,06,11,52.60
2022,05,29,06,12,53.00
2022,05,29,06,13,54.30
2022,05,29,06,14,56.00
2022,05,29,06,15,56.70
2022,05,29,06,16,59.00
2022,05,29,06,17,61.30
2022,05,29,06,18,62.80
2022,05,29,06,19,63.10
2022,05,29,06,20,65.30
2022,05,29,06,21,67.50
2022,05,29,06,22,69.00
2022,05,29,06,23,69.50
2022,05,29,06,24,71.30
2022,05,29,06,25,73.60
2022,05,29,06,26,76.80
2022,05,29,06,27,80.00
2022,05,29,06,28,88.30
2022,05,29,06,29,98.70
2022,05,29,06,30,109.50
2022,05,29,06,31,119.70
2022,05,29,06,32,128.20
2022,05,29,06,33,134.00
2022,05,29,06,34,141.70
2022,05,29,06,35,148.30
2022,05,29,06,36,156.20
2022,05,29,06,37,155.40
2022,05,29,06,38,150.50
2022,05,29,06,39,149.00
2022,05,29,06,40,146.00
2022,05,29,06,41,140.10
2022,05,29,06,42,134.20
2022,05,29,06,43,127.70
2022,05,29,06,44,115.80
2022,05,29,06,45,107.10
2022,05,29,06,46,106.60
2022,05,29,06,47,105.20
2022,05,29,06,48,106.60
2022,05,29,06,49,103.00
2022,05,29,06,50,100.80
2022,05,29,06,51,103.60
2022,05,29,06,52,107.50
2022,05,29,06,53,112.00
2022,05,29,06,54,113.00
2022,05,29,06,55,112.70
2022,05,29,06,56,110.50
2022,05,29,06,57,111.80
2022,05,29,06,58,111.30
2022,05,29,06,59,107.00
2022,05,29,07,00,105.50
2022,05,29,07,01,92.60
2022,05,29,07,02,88.00
2022,05,29,07,03,87.50
2022,05,29,07,04,86.00
2022,05,29,07,05,84.40
2022,05,29,07,06,83.00
2022,05,29,07,07,83.00
2022,05,29,07,08,83.00
2022,05,29,07,09,83.00
2022,05,29,07,10,83.00
2022,05,29,07,11,83.00
2022,05,29,07,12,83.00
2022,05,29,07,13,83.00
2022,05,29,07,14,83.00
2022,05,29,07,15,83.00
2022,05,29,07,16,83.00
2022,05,29,07,17,82.50
2022,05,29,07,18,81.00
2022,05,29,07,19,82.00
2022,05,29,07,20,83.00
2022,05,29,07,21,83.00
2022,05,29,07,22,85.70
2022,05,29,07,23,86.30
2022,05,29,07,24,88.50
2022,05,29,07,25,90.00
2022,05,29,07,26,90.00
2022,05,29,07,27,90.70
2022,05,29,07,28,91.00
2022,05,29,07,29,94.60
2022,05,29,07,30,97.10
2022,05,29,07,31,98.60
2022,05,29,07,32,101.60
2022,05,29,07,33,105.60
2022,05,29,07,34,108.30
2022,05,29,07,35,112.10
2022,05,29,07,36,115.70
2022,05,29,07,37,120.10
2022,05,29,07,38,122.00
2022,05,29,07,39,125.80
2022,05,29,07,40,127.50
2022,05,29,07,41,130.50
2022,05,29,07,42,134.20
2022,05,29,07,43,136.80
2022,05,29,07,44,139.30
2022,05,29,07,45,143.00
2022,05,29,07,46,146.00
2022,05,29,07,47,147.50
2022,05,29,07,48,149.00
2022,05,29,07,49,152.10
2022,05,29,07,50,154.90
2022,05,29,07,51,158.30
2022,05,29,07,52,161.40
2022,05,29,07,53,165.00
2022,05,29,07,54,170.70
2022,05,29,07,55,186.30
2022,05,29,07,56,190.40
2022,05,29,07,57,186.40
2022,05,29,07,58,184.70
2022,05,29,07,59,180.10
2022,05,29,08,00,174.60
2022,05,29,08,01,188.60
2022,05,29,08,02,203.00
2022,05,29,08,03,200.60
2022,05,29,08,04,206.10
2022,05,29,08,05,211.00
2022,05,29,08,06,238.60
2022,05,29,08,07,250.00
2022,05,29,08,08,233.40
2022,05,29,08,09,222.40
2022,05,29,08,10,214.50
2022,05,29,08,11,202.30
2022,05,29,08,12,190.20
2022,05,29,08,13,172.00
2022,05,29,08,14,165.40
2022,05,29,08,15,164.00
2022,05,29,08,16,165.00
2022,05,29,08,17,166.60
2022,05,29,08,18,170.60
2022,05,29,08,19,172.90
2022,05,29,08,20,179.80
2022,05,29,08,21,187.00
2022,05,29,08,22,187.40
2022,05,29,08,23,183.70
2022,05,29,08,24,179.90
2022,05,29,08,25,172.60
2022,05,29,08,26,168.70
2022,05,29,08,27,166.50
2022,05,29,08,28,163.00
2022,05,29,08,29,156.40
2022,05,29,08,30,153.00
2022,05,29,08,31,159.80
2022,05,29,08,32,174.40
2022,05,29,08,33,189.60
2022,05,29,08,34,202.90
2022,05,29,08,35,220.10
2022,05,29,08,36,232.50
2022,05,29,08,37,236.70
2022,05,29,08,38,237.00
2022,05,29,08,39,240.70
2022,05,29,08,40,246.40
2022,05,29,08,41,250.80
2022,05,29,08,42,253.80
2022,05,29,08,43,257.60
2022,05,29,08,44,264.40
2022,05,29,08,45,270.00
2022,05,29,08,46,271.90
2022,05,29,08,47,274.40
2022,05,29,08,48,278.80
2022,05,29,08,49,283.20
2022,05,29,08,50,291.00
2022,05,29,08,51,306.30
2022,05,29,08,52,338.70
2022,05,29,08,53,412.10
2022,05,29,08,54,399.00
2022,05,29,08,55,274.40
2022,05,29,08,56,258.90
2022,05,29,08,57,243.20
2022,05,29,08,58,225.70
2022,05,29,08,59,209.10
2022,05,29,09,00,197.70
2022,05,29,09,01,189.70
2022,05,29,09,02,188.50
2022,05,29,09,03,191.20
2022,05,29,09,04,196.10
2022,05,29,09,05,204.10
2022,05,29,09,06,214.00
2022,05,29,09,07,227.60
2022,05,29,09,08,231.10
2022,05,29,09,09,250.20
2022,05,29,09,10,262.20
2022,05,29,09,11,271.00
2022,05,29,09,12,308.10
2022,05,29,09,13,301.50
2022,05,29,09,14,287.60
2022,05,29,09,15,282.40
2022,05,29,09,16,278.20
2022,05,29,09,17,275.30
2022,05,29,09,18,266.00
2022,05,29,09,19,253.00
2022,05,29,09,20,247.00
2022,05,29,09,21,249.60
2022,05,29,09,22,258.30
2022,05,29,09,23,272.00
2022,05,29,09,24,285.80
2022,05,29,09,25,298.30
2022,05,29,09,26,303.30
2022,05,29,09,27,304.00
2022,05,29,09,28,301.30
2022,05,29,09,29,295.70
2022,05,29,09,30,281.00
2022,05,29,09,31,263.30
2022,05,29,09,32,250.20
2022,05,29,09,33,244.00
2022,05,29,09,34,243.80
2022,05,29,09,35,249.50
2022,05,29,09,36,253.30
2022,05,29,09,37,255.00
2022,05,29,09,38,254.20
2022,05,29,09,39,251.40
2022,05,29,09,40,247.30
2022,05,29,09,41,242.10
2022,05,29,09,42,237.50
2022,05,29,09,43,238.70
2022,05,29,09,44,236.70
2022,05,29,09,45,234.40
2022,05,29,09,46,229.30
2022,05,29,09,47,223.00
2022,05,29,09,48,217.10
2022,05,29,09,49,214.30
2022,05,29,09,50,216.60
2022,05,29,09,51,221.40
2022,05,29,09,52,226.90
2022,05,29,09,53,234.50
2022,05,29,09,54,241.50
2022,05,29,09,55,246.80
2022,05,29,09,56,250.80
2022,05,29,09,57,258.20
2022,05,29,09,58,268.20
2022,05,29,09,59,281.70
2022,05,29,10,00,294.70
2022,05,29,10,01,311.70
2022,05,29,10,02,330.00
2022,05,29,10,03,342.00
2022,05,29,10,04,346.30
2022,05,29,10,05,348.50
2022,05,29,10,06,348.10
2022,05,29,10,07,340.50
2022,05,29,10,08,327.80
2022,05,29,10,09,308.80
2022,05,29,10,10,288.10
2022,05,29,10,11,264.20
2022,05,29,10,12,245.10
2022,05,29,10,13,236.60
2022,05,29,10,14,235.00
2022,05,29,10,15,235.30
2022,05,29,10,16,238.30
2022,05,29,10,17,240.80
2022,05,29,10,18,238.70
2022,05,29,10,19,236.70
2022,05,29,10,20,236.00
2022,05,29,10,21,236.50
2022,05,29,10,22,240.80
2022,05,29,10,23,250.50
2022,05,29,10,24,265.40
2022,05,29,10,25,289.70
2022,05,29,10,26,310.90
2022,05,29,10,27,332.10
2022,05,29,10,28,352.90
2022,05,29,10,29,362.00
2022,05,29,10,30,522.20
2022,05,29,10,31,518.00
2022,05,29,10,32,500.80
2022,05,29,10,33,515.80
2022,05,29,10,34,566.00
2022,05,29,10,35,566.00
2022,05,29,10,36,542.20
2022,05,29,10,37,549.20
2022,05,29,10,38,563.00
2022,05,29,10,39,473.80
2022,05,29,10,40,552.00
2022,05,29,10,41,693.90
2022,05,29,10,42,959.00
2022,05,29,10,43,983.00
2022,05,29,10,44,866.70
2022,05,29,10,45,891.70
2022,05,29,10,46,937.00
2022,05,29,10,47,832.30
2022,05,29,10,48,533.00
2022,05,29,10,49,533.00
2022,05,29,10,50,533.00
2022,05,29,10,51,533.00
2022,05,29,10,52,533.00
2022,05,29,10,53,604.10
2022,05,29,10,54,1013.00
2022,05,29,10,55,1013.00
2022,05,29,10,56,733.00
2022,05,29,10,57,444.70
2022,05,29,10,58,471.00
2022,05,29,10,59,430.60
2022,05,29,11,00,424.00
2022,05,29,11,01,424.00
2022,05,29,11,02,537.70
2022,05,29,11,03,703.00
2022,05,29,11,04,703.00
2022,05,29,11,05,703.00
2022,05,29,11,06,430.90
2022,05,29,11,07,382.00
2022,05,29,11,08,385.90
2022,05,29,11,09,377.40
2022,05,29,11,10,373.50
2022,05,29,11,11,375.30
2022,05,29,11,12,384.20
2022,05,29,11,13,377.20
2022,05,29,11,14,379.10
2022,05,29,11,15,387.80
2022,05,29,11,16,414.40
2022,05,29,11,17,462.50
2022,05,29,11,18,429.30
2022,05,29,11,19,410.00
2022,05,29,11,20,410.00
2022,05,29,11,21,1019.40
2022,05,29,11,22,1028.00
2022,05,29,11,23,1028.00
2022,05,29,11,24,832.00
2022,05,29,11,25,650.00
2022,05,29,11,26,650.00
2022,05,29,11,27,650.00
2022,05,29,11,28,650.00
2022,05,29,11,29,650.00
2022,05,29,11,30,650.00
2022,05,29,11,31,650.00
2022,05,29,11,32,650.00
2022,05,29,11,33,650.00
2022,05,29,11,34,650.00
2022,05,29,11,35,634.00
2022,05,29,11,36,538.00
2022,05,29,11,37,538.00
2022,05,29,11,38,538.00
2022,05,29,11,39,538.00
2022,05,29,11,40,538.00
2022,05,29,11,41,538.00
2022,05,29,11,42,622.60
2022,05,29,11,43,1109.00
2022,05,29,11,44,865.40
2022,05,29,11,45,440.80
2022,05,29,11,46,378.60
2022,05,29,11,47,358.10
2022,05,29,11,48,353.40
2022,05,29,11,49,364.20
2022,05,29,11,50,394.00
2022,05,29,11,51,394.00
2022,05,29,11,52,394.00
2022,05,29,11,53,759.80
2022,05,29,11,54,1034.60
2022,05,29,11,55,1027.50
2022,05,29,11,56,1053.30
2022,05,29,11,57,1079.60
2022,05,29,11,58,1168.50
2022,05,29,11,59,1197.00
2022,05,29,12,00,789.60
2022,05,29,12,01,535.90
2022,05,29,12,02,489.20
2022,05,29,12,03,465.30
2022,05,29,12,04,460.00
2022,05,29,12,05,459.60
2022,05,29,12,06,447.40
2022,05,29,12,07,415.30
2022,05,29,12,08,392.00
2022,05,29,12,09,380.90
2022,05,29,12,10,375.60
2022,05,29,12,11,372.00
2022,05,29,12,12,369.00
2022,05,29,12,13,370.00
2022,05,29,12,14,371.00
2022,05,29,12,15,376.20
2022,05,29,12,16,431.60
2022,05,29,12,17,438.00
2022,05,29,12,18,429.70
2022,05,29,12,19,407.60
2022,05,29,12,20,404.30
2022,05,29,12,21,405.90
2022,05,29,12,22,419.00
2022,05,29,12,23,432.70
2022,05,29,12,24,435.40
2022,05,29,12,25,428.20
2022,05,29,12,26,424.40
2022,05,29,12,27,419.60
2022,05,29,12,28,400.90
2022,05,29,12,29,402.40
2022,05,29,12,30,386.40
2022,05,29,12,31,364.10
2022,05,29,12,32,350.70
2022,05,29,12,33,343.40
2022,05,29,12,34,341.00
2022,05,29,12,35,341.00
2022,05,29,12,36,351.50
2022,05,29,12,37,365.70
2022,05,29,12,38,385.90
2022,05,29,12,39,407.90
2022,05,29,12,40,430.50
2022,05,29,12,41,459.00
2022,05,29,12,42,479.00
2022,05,29,12,43,506.10
2022,05,29,12,44,480.10
2022,05,29,12,45,437.70
2022,05,29,12,46,414.40
2022,05,29,12,47,402.00
2022,05,29,12,48,397.40
2022,05,29,12,49,393.30
2022,05,29,12,50,395.10
2022,05,29,12,51,405.40
2022,05,29,12,52,419.30
2022,05,29,12,53,425.70
2022,05,29,12,54,417.60
2022,05,29,12,55,403.50
2022,05,29,12,56,385.00
2022,05,29,12,57,369.40
2022,05,29,12,58,360.80
2022,05,29,12,59,360.90
2022,05,29,13,00,368.60
2022,05,29,13,01,380.10
2022,05,29,13,02,394.00
2022,05,29,13,03,411.10
2022,05,29,13,04,433.30
2022,05,29,13,05,455.60
2022,05,29,13,06,522.00
2022,05,29,13,07,522.00
2022,05,29,13,08,494.50
2022,05,29,13,09,437.50
2022,05,29,13,10,415.20
2022,05,29,13,11,403.20
2022,05,29,13,12,396.60
2022,05,29,13,13,391.40
2022,05,29,13,14,387.20
2022,05,29,13,15,384.30
2022,05,29,13,16,384.00
2022,05,29,13,17,388.10
2022,05,29,13,18,395.20
2022,05,29,13,19,402.30
2022,05,29,13,20,406.40
2022,05,29,13,21,411.20
2022,05,29,13,22,415.80
2022,05,29,13,23,417.00
2022,05,29,13,24,415.70
2022,05,29,13,25,411.30
2022,05,29,13,26,404.80
2022,05,29,13,27,401.00
2022,05,29,13,28,401.90
2022,05,29,13,29,406.90
2022,05,29,13,30,414.80
2022,05,29,13,31,424.00
2022,05,29,13,32,432.20
2022,05,29,13,33,431.30
2022,05,29,13,34,429.00
2022,05,29,13,35,430.30
2022,05,29,13,36,432.90
2022,05,29,13,37,431.50
2022,05,29,13,38,434.50
2022,05,29,13,39,439.80
2022,05,29,13,40,449.00
2022,05,29,13,41,454.00
2022,05,29,13,42,453.50
2022,05,29,13,43,453.20
2022,05,29,13,44,455.00
2022,05,29,13,45,456.30
2022,05,29,13,46,451.60
2022,05,29,13,47,442.00
2022,05,29,13,48,437.40
2022,05,29,13,49,433.20
2022,05,29,13,50,431.00
2022,05,29,13,51,430.00
2022,05,29,13,52,427.70
2022,05,29,13,53,428.60
2022,05,29,13,54,431.70
2022,05,29,13,55,438.70
2022,05,29,13,56,444.80
2022,05,29,13,57,451.60
2022,05,29,13,58,455.60
2022,05,29,13,59,455.70
2022,05,29,14,00,455.00
2022,05,29,14,01,442.40
2022,05,29,14,02,437.70
2022,05,29,14,03,435.50
2022,05,29,14,04,432.00
2022,05,29,14,05,425.40
2022,05,29,14,06,419.30
2022,05,29,14,07,421.10
2022,05,29,14,08,428.20
2022,05,29,14,09,454.10
2022,05,29,14,10,503.00
2022,05,29,14,11,503.00
2022,05,29,14,12,512.10
2022,05,29,14,13,507.30
2022,05,29,14,14,502.60
2022,05,29,14,15,503.00
2022,05,29,14,16,705.60
2022,05,29,14,17,761.00
2022,05,29,14,18,761.00
2022,05,29,14,19,620.00
2022,05,29,14,20,476.10
2022,05,29,14,21,457.30
2022,05,29,14,22,442.40
2022,05,29,14,23,431.00
2022,05,29,14,24,423.20
2022,05,29,14,25,416.80
2022,05,29,14,26,416.60
2022,05,29,14,27,423.80
2022,05,29,14,28,437.90
2022,05,29,14,29,452.60
2022,05,29,14,30,463.90
2022,05,29,14,31,477.10
2022,05,29,14,32,481.90
2022,05,29,14,33,474.50
2022,05,29,14,34,457.00
2022,05,29,14,35,443.00
2022,05,29,14,36,444.10
2022,05,29,14,37,488.00
2022,05,29,14,38,526.00
2022,05,29,14,39,488.60
2022,05,29,14,40,446.50
2022,05,29,14,41,426.40
2022,05,29,14,42,423.50
2022,05,29,14,43,443.60
2022,05,29,14,44,437.70
2022,05,29,14,45,389.40
2022,05,29,14,46,380.00
2022,05,29,14,47,377.60
2022,05,29,14,48,366.10
2022,05,29,14,49,355.00
2022,05,29,14,50,353.00
2022,05,29,14,51,441.00
2022,05,29,14,52,441.00
2022,05,29,14,53,441.00
2022,05,29,14,54,758.70
2022,05,29,14,55,1028.30
2022,05,29,14,56,1027.30
2022,05,29,14,57,1038.40
2022,05,29,14,58,1055.00
2022,05,29,14,59,1054.00
2022,05,29,15,00,1050.30
2022,05,29,15,01,1046.50
2022,05,29,15,02,1051.60
2022,05,29,15,03,1060.50
2022,05,29,15,04,1062.90
2022,05,29,15,05,1111.00
2022,05,29,15,06,1017.00
2022,05,29,15,07,735.00
2022,05,29,15,08,934.50
2022,05,29,15,09,1132.70
2022,05,29,15,10,1154.50
2022,05,29,15,11,1162.00
2022,05,29,15,12,876.50
2022,05,29,15,13,891.00
2022,05,29,15,14,940.90
2022,05,29,15,15,1018.00
2022,05,29,15,16,935.10
2022,05,29,15,17,889.00
2022,05,29,15,18,1066.20
2022,05,29,15,19,1077.80
2022,05,29,15,20,1075.80
2022,05,29,15,21,1041.00
2022,05,29,15,22,1010.00
2022,05,29,15,23,979.00
2022,05,29,15,24,979.00
2022,05,29,15,25,979.00
2022,05,29,15,26,979.00
2022,05,29,15,27,967.60
2022,05,29,15,28,931.70
2022,05,29,15,29,889.90
2022,05,29,15,30,879.00
2022,05,29,15,31,881.20
2022,05,29,15,32,879.00
2022,05,29,15,33,864.40
2022,05,29,15,34,862.00
2022,05,29,15,35,864.20
2022,05,29,15,36,855.70
2022,05,29,15,37,847.10
2022,05,29,15,38,846.80
2022,05,29,15,39,848.80
2022,05,29,15,40,830.20
2022,05,29,15,41,768.00
2022,05,29,15,42,768.00
2022,05,29,15,43,801.50
2022,05,29,15,44,835.00
2022,05,29,15,45,826.40
2022,05,29,15,46,821.30
2022,05,29,15,47,811.40
2022,05,29,15,48,778.80
2022,05,29,15,49,841.40
2022,05,29,15,50,818.50
2022,05,29,15,51,805.70
2022,05,29,15,52,799.40
2022,05,29,15,53,795.10
2022,05,29,15,54,768.00
2022,05,29,15,55,753.50
2022,05,29,15,56,756.50
2022,05,29,15,57,748.60
2022,05,29,15,58,738.00
2022,05,29,15,59,733.40
2022,05,29,16,00,743.30
2022,05,29,16,01,758.10
2022,05,29,16,02,754.60
2022,05,29,16,03,734.20
2022,05,29,16,04,708.50
2022,05,29,16,05,684.00
2022,05,29,16,06,663.70
2022,05,29,16,07,643.40
2022,05,29,16,08,628.00
2022,05,29,16,09,622.00
2022,05,29,16,10,623.60
2022,05,29,16,11,629.60
2022,05,29,16,12,634.90
2022,05,29,16,13,637.60
2022,05,29,16,14,635.30
2022,05,29,16,15,632.60
2022,05,29,16,16,627.30
2022,05,29,16,17,672.40
2022,05,29,16,18,686.00
2022,05,29,16,19,691.00
2022,05,29,16,20,694.00
2022,05,29,16,21,662.90
2022,05,29,16,22,573.90
2022,05,29,16,23,629.00
2022,05,29,16,24,674.20
2022,05,29,16,25,714.50
2022,05,29,16,26,715.10
2022,05,29,16,27,709.60
2022,05,29,16,28,689.10
2022,05,29,16,29,643.00
2022,05,29,16,30,622.20
2022,05,29,16,31,672.70
2022,05,29,16,32,656.10
2022,05,29,16,33,635.00
2022,05,29,16,34,614.50
2022,05,29,16,35,595.80
2022,05,29,16,36,584.00
2022,05,29,16,37,576.70
2022,05,29,16,38,572.20
2022,05,29,16,39,568.40
2022,05,29,16,40,566.00
2022,05,29,16,41,566.00
2022,05,29,16,42,559.80
2022,05,29,16,43,551.00
2022,05,29,16,44,542.70
2022,05,29,16,45,535.20
2022,05,29,16,46,530.40
2022,05,29,16,47,522.60
2022,05,29,16,48,514.80
2022,05,29,16,49,510.30
2022,05,29,16,50,503.60
2022,05,29,16,51,499.90
2022,05,29,16,52,495.80
2022,05,29,16,53,491.90
2022,05,29,16,54,488.10
2022,05,29,16,55,485.40
2022,05,29,16,56,483.20
2022,05,29,16,57,479.60
2022,05,29,16,58,476.00
2022,05,29,16,59,474.10
2022,05,29,17,00,470.00
2022,05,29,17,01,469.00
2022,05,29,17,02,468.20
2022,05,29,17,03,467.90
2022,05,29,17,04,465.70
2022,05,29,17,05,464.00